User: anonymous   Login
Location: Unspecified
(0.0000°N, 0.0000°E)
Time: 20:25:09
(UTC+00:00)
Language:

TBA - TO BE ASSIGNED - Orbit

View from above orbital plane
View from above orbital plane
View from above satellite
View from above satellite

Ground track
Ground track

The orbit is defined by the following mean orbital elements,

1 69004U          26145.25563529 +.00000000 +00000-0 +13302-3 0 00009
2 69004  97.4072  43.4854 0006149  92.8721 267.3218 15.20010212    00
Epoch (UTC): 25 May 2026 06:08:06
Eccentricity: 0.0006149
inclination: 97.4072°
perigee height: 502 km
apogee height: 510 km
right ascension of ascending node: 43.4854°
argument of perigee: 92.8721°
revolutions per day: 15.20010212
mean anomaly at epoch: 267.3218°

The dashed part of the orbit path shows where the satellite is in the earth's shadow,  

DLR